Powrót do katalogu

NOAA 16 DEB

AktywnyPO
NORAD 41256·DEBRIS·🇺🇸 United States

Wystrzelony Sep 21, 2000 z Vandenberg Space Force Base

Loading…

Następne Przeloty (najbliższe 24 godziny)

TLE

ŚwieżeSource: Space-Track

Epoka: Sep 13, 2026, 05:46 UTC

1 41256U 00055FG  26256.24080369  .00006894  00000-0  14779-2 0  9998
2 41256  99.0800 172.6935 0009922 251.1052 108.9069 14.58994928557017

Śledź NOAA 16 DEB w czasie rzeczywistym z AllMySat

Download on the App Store